Japanese version Home page |
Updated on June 22, 2024 |
Profile
|
Orbital ElementsEpoch 2024 Mar. 31.0 TT = JDT 2460400.5 T 2024 May 9.20906 TT Rudenko q 3.4560657 (2000.0) P Q n 0.05500173 Peri. 351.97836 -0.44348412 +0.89579369 a 6.8478119 Node 251.69114 -0.82058316 -0.41908524 e 0.4953036 Incl. 1.78601 -0.36050674 -0.14805821 P 17.9 >From 28 observations 2024 May 30-June 10, mean residual 0".2.
|
Magnitudes Graphm1 = 13.0 + 5 log d + 10.0 log r
|
The orbital elements are published on M.P.E.C. 2024-L114.
|